Theta_e
336 342 348 349 349 349 348 347 348 349 349 348 347 347 348 348 348 348 348 348 348 345 346 348 349 350 349 347 346 345 342 340 342 344 346 345 348 347 347 346 345 341 344
340 342 346 349 349 349 349 347 347 347 348 347 347 346 345 346 347 347 348 348 347 345 343 345 348 348 348 349 347 345 343 342 343 345 347 348 346 346 346 344 344 340 341
340 341 343 348 349 348 348 347 346 345 344 345 346 346 345 345 345 346 347 347 346 346 345 344 344 346 346 346 346 346 344 343 343 344 344 339 340 346 345 343 344 341 340
341 343 342 345 347 347 347 347 345 343 342 343 343 344 345 345 345 346 346 347 346 346 346 344 344 344 345 344 345 345 345 345 344 343 340 339 339 344 344 343 341 340 340
341 341 342 343 346 345 346 345 345 344 343 342 342 343 343 345 345 346 347 347 346 345 345 346 345 345 345 343 343 344 344 344 342 341 337 336 337 342 344 342 341 340 340
338 339 339 343 344 344 344 344 344 345 344 343 343 343 343 345 346 346 346 346 346 345 345 345 347 348 347 345 344 344 344 343 341 337 335 337 336 342 344 342 340 340 339
331 325 329 337 338 340 340 341 342 342 342 341 341 342 342 343 344 345 344 344 346 345 343 343 346 346 346 345 344 344 343 340 337 335 333 334 336 344 344 342 340 338 339
320 321 321 323 328 332 334 335 338 338 338 339 340 340 341 342 342 341 342 343 342 344 343 344 344 344 344 344 344 343 339 336 335 332 329 333 338 343 343 342 339 338 336
313 314 314 317 322 323 325 326 330 330 328 328 329 330 333 334 337 339 339 338 339 341 342 342 342 342 342 341 340 338 335 333 332 331 331 334 339 342 342 341 339 337 336
307 309 310 311 313 314 315 320 321 322 322 322 320 320 321 328 329 331 333 335 337 339 341 341 341 341 340 339 337 334 332 331 331 330 330 332 339 343 342 341 339 337 336
306 306 308 309 309 310 312 314 318 319 320 320 319 319 318 316 318 324 325 330 335 336 335 336 338 339 335 333 333 331 329 332 331 329 330 331 340 343 342 340 340 339 337
302 303 306 307 307 308 311 311 311 313 313 314 314 314 316 315 316 318 319 323 327 329 333 334 334 334 331 333 333 330 331 331 331 330 329 331 341 343 342 340 340 340 338
301 303 306 307 307 307 307 308 309 310 310 311 311 312 312 313 314 315 316 317 317 320 330 330 330 332 332 332 332 330 331 332 330 329 329 329 339 344 342 341 339 340 339
299 303 304 306 307 307 306 306 306 307 306 308 308 310 309 309 310 311 312 313 313 315 317 328 330 330 330 332 332 331 330 329 328 328 328 325 334 341 343 341 339 339 338
298 302 304 305 305 306 306 305 305 305 306 306 307 309 309 308 307 309 309 311 313 313 312 313 319 327 329 330 331 331 331 330 327 327 328 320 328 338 342 341 341 339 338
300 302 304 305 304 304 303 303 303 304 304 304 305 306 307 307 306 307 307 308 309 312 312 311 311 315 318 322 328 330 330 330 330 328 328 324 325 333 338 340 341 340 339
301 304 303 302 302 302 301 301 302 302 303 302 303 303 304 305 303 303 304 304 306 308 311 311 309 309 311 315 317 325 326 329 328 328 327 328 325 325 332 337 338 340 340
301 301 302 303 301 300 300 299 300 300 300 300 300 301 301 303 303 301 302 302 304 305 306 308 308 306 306 306 307 313 322 327 327 328 328 328 328 327 327 331 334 336 339
300 299 299 300 300 299 299 298 298 298 298 299 298 298 299 300 301 299 299 300 302 303 303 304 305 306 304 304 305 306 309 314 325 327 327 327 327 328 327 327 328 328 333
297 298 298 299 298 298 297 297 297 296 297 297 296 297 298 298 299 297 297 297 299 299 300 301 302 304 304 303 305 305 305 309 311 317 325 326 326 327 328 326 325 326 326
297 296 297 296 296 295 294 292 292 291 292 293 294 296 296 296 296 295 295 296 296 296 297 299 300 300 301 303 301 301 302 304 306 307 316 325 325 326 326 327 326 326 326
295 296 296 296 295 294 293 292 291 290 291 292 293 294 295 295 296 295 294 294 295 295 296 296 297 297 299 301 303 299 295 296 302 305 309 320 323 325 325 325 325 326 327
294 294 295 295 294 293 292 292 291 291 290 290 291 292 293 294 294 294 293 293 293 294 293 294 295 295 294 297 301 302 295 292 297 302 308 312 320 322 323 324 325 326 326
294 294 294 294 293 293 291 290 288 287 286 288 289 290 291 292 292 293 293 293 292 293 292 293 295 294 294 293 296 300 304 300 296 295 297 300 306 317 320 322 323 325 326
294 292 292 292 292 291 290 289 287 286 287 288 288 288 289 290 291 292 293 293 292 292 292 292 292 294 294 293 293 295 296 299 300 296 294 298 295 301 305 319 322 323 324
293 292 291 291 290 290 289 288 287 286 286 286 286 286 287 288 289 289 290 291 291 291 291 291 291 292 292 293 294 295 295 294 297 298 296 295 297 302 303 307 315 320 322
Wind_Speed
5 9 12 8 9 9 8 9 8 7 4 5 4 4 4 5 5 5 5 4 2 2 3 5 9 10 8 7 7 7 7 4 4 5 7 9 13 13 14 13 12 10 14
8 14 11 9 8 8 8 8 7 6 6 4 4 2 2 3 3 3 4 5 5 3 2 4 7 9 9 9 8 8 7 6 6 5 3 8 12 14 14 10 14 11 13
3 12 10 8 6 6 8 7 5 5 4 4 3 3 1 1 1 1 2 2 2 3 3 1 5 8 10 10 9 8 8 8 6 4 7 5 5 15 14 10 14 13 12
12 13 10 10 7 6 6 5 4 2 2 2 2 1 0 2 2 3 3 2 2 4 4 3 4 8 10 8 8 9 9 9 7 7 5 4 7 14 14 16 15 14 13
13 11 10 11 10 7 3 3 3 2 1 2 3 3 3 3 4 5 5 5 5 6 7 7 6 7 7 8 9 10 10 10 9 8 6 6 6 11 16 15 14 13 10
8 11 11 12 11 10 10 8 2 2 3 4 5 6 7 7 6 6 6 6 7 9 9 10 10 9 10 10 10 10 10 9 9 7 7 9 7 14 17 17 16 13 11
8 9 9 14 14 13 11 9 10 9 6 4 5 7 8 8 8 8 8 9 9 10 11 12 12 12 10 12 13 13 12 10 7 6 8 6 9 17 18 18 18 16 16
8 7 9 12 14 14 14 13 12 12 12 11 10 6 7 8 8 10 10 10 11 11 11 13 12 12 12 12 13 13 12 11 10 8 10 6 13 17 19 19 18 17 17
7 7 6 7 10 14 13 13 13 13 12 12 13 13 12 9 9 9 7 7 11 13 12 12 13 12 11 10 13 12 12 12 9 8 10 5 14 18 19 21 20 19 18
6 7 6 6 6 7 7 9 10 10 10 10 10 8 8 10 11 11 9 10 12 9 11 12 12 11 10 10 12 12 12 13 10 8 9 4 16 20 21 23 23 23 20
6 7 6 6 5 5 6 5 7 7 8 8 7 7 5 3 4 5 7 10 11 11 8 8 10 11 11 11 12 12 12 6 8 8 6 9 17 20 21 24 23 22 23
8 6 6 6 4 4 4 4 4 4 4 4 4 5 4 4 4 4 5 6 8 9 13 14 14 11 10 6 5 10 6 9 8 9 8 12 18 21 23 27 24 23 23
7 6 7 5 5 5 4 2 2 2 3 3 3 3 3 3 3 2 2 3 3 5 4 7 8 6 7 6 6 8 11 11 8 8 12 15 17 21 23 26 26 26 25
5 7 6 7 5 4 2 3 3 3 2 3 3 5 2 2 3 3 3 4 3 3 5 4 5 8 9 8 10 12 10 11 8 8 10 15 18 21 24 25 29 28 27
4 7 7 6 6 4 4 3 3 3 3 4 4 5 4 4 4 4 4 4 4 3 3 4 4 5 7 10 11 13 14 10 12 8 7 15 18 22 24 27 30 31 30
6 7 7 6 5 4 2 2 2 3 3 3 4 5 6 5 4 4 5 5 5 4 4 4 4 4 5 5 10 14 15 13 13 11 11 6 17 20 24 27 30 32 32
6 8 6 5 5 3 3 4 3 3 3 3 4 5 6 5 6 6 5 5 5 5 6 5 4 4 4 6 9 9 11 12 12 12 10 8 8 17 21 27 29 29 31
8 7 6 3 2 4 4 4 3 3 3 4 4 4 6 6 6 6 5 5 5 6 5 4 4 4 4 4 5 7 8 10 12 14 12 9 8 8 14 24 28 30 30
8 8 5 4 3 4 3 3 4 5 4 4 4 3 5 6 6 5 5 6 7 7 6 5 5 5 4 4 5 6 7 9 10 15 18 17 15 10 9 18 24 27 31
7 5 5 3 3 3 3 3 3 4 4 4 4 4 5 4 6 5 5 6 6 7 7 6 7 5 5 4 5 7 5 7 8 10 14 15 18 18 12 13 14 15 26
6 4 5 2 3 3 2 3 2 3 4 4 4 6 6 5 5 5 5 6 7 7 7 7 7 8 6 4 4 5 8 12 13 12 10 14 18 16 17 14 9 12 13
6 5 4 3 4 3 3 2 2 3 4 4 5 6 7 6 6 6 5 5 7 7 8 7 6 6 6 4 7 3 6 5 10 11 10 10 17 15 17 16 17 17 17
6 5 3 3 3 3 2 2 3 3 4 3 4 4 4 6 6 6 6 7 8 7 7 8 7 7 7 5 7 7 3 5 4 2 11 13 14 16 16 16 19 17 17
6 5 2 3 2 1 2 2 3 3 6 4 6 4 6 6 6 6 8 9 8 7 8 7 7 6 7 8 5 8 10 6 2 6 3 5 5 12 15 16 17 17 16
7 4 2 2 0 2 3 3 3 5 4 5 5 7 8 7 8 8 9 10 10 10 11 12 11 10 8 8 8 6 9 8 9 10 14 10 3 5 4 14 18 15 16
7 4 2 1 1 3 3 4 4 6 6 7 8 8 7 8 9 11 11 10 10 10 11 11 12 12 10 10 9 9 9 8 9 9 11 11 13 10 5 7 8 10 11
Wind_Direction
52 135 120 118 128 128 116 98 79 97 116 131 145 124 103 94 83 56 38 45 48 140 179 198 175 176 164 143 123 117 100 100 129 134 135 144 129 136 137 139 120 113 113
357 118 120 125 125 129 116 103 96 93 95 113 151 123 120 95 83 75 74 30 21 13 226 214 201 188 167 150 149 143 140 150 159 159 173 144 151 151 148 154 119 122 120
314 122 111 107 125 113 127 118 111 97 89 82 123 147 136 126 136 59 352 50 8 339 343 225 221 196 191 176 168 167 168 165 180 168 152 140 157 157 154 137 126 132 128
62 64 83 81 93 108 116 124 122 112 96 61 67 54 238 239 234 239 242 251 268 279 288 284 238 216 205 201 185 184 183 178 181 181 181 167 169 172 154 142 139 139 140
62 67 69 70 65 62 93 131 152 185 226 285 294 282 260 253 254 252 267 271 262 265 262 261 244 220 220 214 205 202 198 190 187 191 206 175 157 185 164 155 149 136 140
75 69 59 68 70 65 61 65 52 224 252 271 277 276 277 275 266 265 267 270 269 265 266 268 263 232 209 205 211 208 206 194 191 200 229 186 172 186 181 163 153 147 155
75 76 68 68 70 68 65 54 57 56 46 351 290 276 274 279 280 277 272 272 269 269 267 269 275 277 247 211 207 211 203 197 195 215 238 185 172 184 190 169 161 164 157
85 83 96 78 76 69 67 69 62 57 49 41 28 356 292 279 277 277 280 270 271 270 263 265 262 271 274 246 212 209 206 195 203 230 234 191 180 191 192 178 170 168 163
94 88 70 98 102 84 69 68 72 71 60 50 41 36 23 350 318 292 273 287 289 278 269 263 264 261 264 255 239 219 208 206 209 224 247 197 181 190 197 183 173 169 172
103 101 91 76 73 79 101 88 85 83 82 79 74 56 34 27 14 9 313 287 277 301 273 257 251 262 260 257 241 219 205 211 220 226 243 229 180 189 199 189 179 173 178
111 97 85 79 68 106 109 124 108 108 93 71 55 44 55 54 7 350 337 340 302 287 291 299 282 257 252 252 239 223 205 211 216 232 241 234 189 189 191 192 183 182 180
122 96 96 88 91 53 73 77 59 56 47 58 51 31 16 9 354 343 311 333 328 286 274 266 276 276 249 230 228 225 213 214 215 225 237 240 188 192 197 198 188 186 186
120 118 121 103 89 69 79 30 36 51 28 348 49 27 345 335 306 314 308 320 318 328 288 257 252 258 233 229 205 234 216 208 219 222 224 240 206 191 197 204 194 190 188
152 127 126 126 104 70 22 44 26 24 33 318 356 319 318 304 288 280 283 273 272 280 292 303 255 241 237 236 227 212 246 222 212 227 224 220 206 199 200 204 203 194 193
154 134 134 110 116 89 49 37 9 346 345 345 322 315 314 291 290 290 271 259 250 248 248 269 284 295 251 237 234 233 228 225 239 223 235 210 202 200 202 200 206 201 196
181 138 118 112 86 67 61 45 360 323 306 324 312 298 309 306 296 290 287 278 259 238 230 239 248 260 265 297 257 237 233 234 221 225 241 216 200 202 204 202 210 207 200
146 122 112 92 81 65 12 23 352 311 337 313 307 317 308 309 299 297 296 296 291 273 249 233 248 249 256 266 260 285 247 239 221 216 236 234 219 203 205 206 206 210 206
120 128 113 111 70 49 16 1 325 310 303 303 294 302 306 303 306 302 292 288 290 295 288 246 227 240 245 250 265 255 277 233 238 218 221 227 227 218 210 211 207 211 212
130 126 144 109 81 53 358 309 290 296 290 275 280 285 304 310 308 300 297 299 302 296 289 280 264 226 234 241 248 255 259 267 266 228 219 217 222 207 210 215 212 210 211
104 109 111 98 76 31 342 319 322 312 303 338 320 297 303 306 308 305 295 298 300 292 287 284 282 279 251 234 256 263 259 259 262 283 230 216 219 214 203 205 216 213 210
132 135 101 79 51 40 359 342 335 308 319 309 298 310 313 301 300 299 294 290 285 283 282 280 281 275 274 246 255 274 261 248 246 246 264 231 216 218 217 205 212 214 214
150 146 111 80 49 29 31 342 282 309 283 287 287 277 265 264 265 272 278 294 301 299 293 287 283 284 282 257 262 227 289 302 237 231 226 236 228 213 212 210 219 210 207
170 114 94 71 47 35 17 318 310 301 303 310 309 315 313 313 307 301 293 287 289 287 284 285 289 285 282 274 267 243 265 243 318 212 225 223 233 234 220 218 215 215 204
131 113 115 70 33 341 358 338 323 297 305 303 307 301 313 304 292 285 287 287 284 281 279 281 276 270 276 277 279 273 261 268 307 321 339 299 277 228 228 216 215 213 203
125 133 154 107 342 9 354 354 324 303 295 307 305 310 312 312 308 308 299 290 284 280 280 283 284 284 274 274 273 277 272 270 250 251 268 281 312 262 274 251 210 207 201
137 171 153 128 347 22 360 341 327 314 319 318 312 309 307 307 303 298 296 291 287 282 278 276 275 276 275 272 274 270 265 256 259 238 249 257 261 280 263 244 267 202 209